Location: Errabaliem
(16.8108°N, 80.4255°E)
Time: 06:38:12
(UTC+00:00)

Cosmos 864 Rocket - Pass Details

Date: 05 August 2024
Orbit: 953 x 990 km, 82.9° (Epoch: 10 September)

Event Time Altitude Azimuth Distance (km) Brightness Sun altitude
Rises 13:55:33 0° 182° (S) 3,658 7.3 -11.4°
Reaches altitude 10° 13:58:04 10° 182° (S) 2,707 6.6 -11.9°
Maximum altitude 14:04:16 87° 93° (E) 968 4.5 -13.3°
Drops below altitude 10° 14:10:25 10° 5° (N) 2,686 7.0 -14.7°
Sets 14:12:54 0° 5° (N) 3,629 7.7 -15.2°
